Погода в Стрельцовке

Украина / Луганская область     49°18′03″N   39°50′59″E
темп.,
°C
ветер,
м/с
пор.,
м/с
влажн.,
%
обл.,
%
осадки,
мм/ч
давл.,
гПа
погр.,
м
2 марта, вт
вт223:00−2з227771 0.0 102832
02:00−2юз368041 0.0 1027206
05:00−1зюз5108168 0.0 1025460
08:00+1зюз8127584 0.0 1023954
11:00+1зюз81272100 0.0 1021696
14:00+3з81272100 0.0 10181081
17:00+1з81496100 0.3 1015766
20:00+1з71493100 0.4 1014718
3 марта, ср
ср323:000з71297100 1.8 1011604
02:00+1сз61197100 2.8 1012577
05:000ссз61186100 0.5 1013749
08:000ссз8118276 0.5 1017875
11:00+1сз71066100 0.1 10181229
14:00+2сз9125496 0.2 10191707
17:00−1сз410657 0.0 1020336
20:00−2зсз410783 0.0 1022324
4 марта, чт
чт423:00−2з48830 0.0 1022245
02:00−2зюз510850 0.0 1021301
05:00−1зюз512881 0.0 1020376
08:00+1зюз712756 0.0 1019690
11:00+5зюз811560 0.0 10171000
14:00+6зюз913530 0.0 10151189
17:00+4юз615650 0.0 1012485
20:00+3юз717750 0.0 1012596
5 марта, пт
пт523:00+3юз8178530 0.0 1010674
02:00+3зюз8168865 0.0 1010605
05:00+3зюз71389100 0.0 1010535
08:00+3зюз61189100 0.0 1011529
11:00+4зюз61087100 0.0 1012597
14:00+7з6973100 0.1 10111067
17:00+5зюз3993100 1.4 1011489
20:00+6юз61287100 3.6 1012491
6 марта, сб
сб623:00+4юз51188100 1.3 1010547
02:00+4зюз4993100 3.8 1010448
05:00+1с6897100 1.9 1010354
08:00−1ссв6989100 2.3 1013556
11:000с5779100 0.3 1014650
14:00+1ссв5659100 0.3 10151032
17:00−1ссв4670100 0.0 1016702
20:00−2св3571100 0.0 1018432